Weather History for Claremore, OK

Change the Weather History Date:

Friday, January 25, 2013

  Actual Average (KTUL) Record (KTUL)
Temperature  
Mean Temperature 40 °F 38 °F  
Max Temperature 48 °F 49 °F 74 °F (1952)
Min Temperature 32 °F 28 °F 2 °F (1940)
Degree Days  
Heating Degree Days 25 27  
Month to date heating degree days 690  
Since 1 July heating degree days 2118  
Moisture  
Dew Point 27 °F    
Average Humidity 65    
Maximum Humidity 81    
Minimum Humidity 46    
Precipitation  
Precipitation 0.00 in 0.05 in 1.89 in (1989)
Month to date precipitation 1.31  
Year to date precipitation 1.31  
Sea Level Pressure  
Sea Level Pressure 30.23 in    
Wind  
Wind Speed 3 mph (NNW)    
Max Wind Speed 8 mph    
Max Gust Speed -    
Visibility 10 miles    
Events      
T = Trace of Precipitation, MM = Missing Value Source: NWS Daily Summary

Daily Weather History Graph

Daily Weather History Graph

Search for Another Location

Airport:

Trip Planner

Search our weather history database for the weather conditions in past years. The results will help you decide how hot, cold, wet, or windy it might be!

Date:

Astronomy

Jan. 25, 2013 Rise Set
Actual Time 7:27 AM CST 5:41 PM CST
Civil Twilight 7:00 AM CST 6:08 PM CST
Nautical Twilight 6:29 AM CST 6:39 PM CST
Astronomical Twilight 5:58 AM CST 7:10 PM CST
Moon 4:39 PM CST (1/25) 6:07 AM CST (1/25)
Length of Visible Light 11h 08m
Length of Day
10h 13m
Waxing Gibbous, 98% of the Moon is Illuminated
Jan 25
Waxing Gibbous
Jan 26
Full
Feb 3
Last Quarter
Feb 10
New
Feb 17
First Quarter

Hourly Weather History & Observations

Time (CST) Temp. Windchill Dew Point Humidity Pressure Visibility Wind Dir Wind Speed Gust Speed Precip Events Conditions
12:15 AM 35.6 °F 32.8 °F 28.4 °F 75% 30.17 in 10.0 mi West 3.5 mph - N/A   Overcast
12:35 AM 35.6 °F - 26.6 °F 70% 30.17 in 10.0 mi Calm Calm - N/A   Overcast
12:55 AM 35.6 °F 30.7 °F 26.6 °F 70% 30.16 in 10.0 mi NW 5.8 mph - N/A   Overcast
1:15 AM 35.6 °F 30.7 °F 26.6 °F 70% 30.17 in 10.0 mi NNW 5.8 mph - N/A   Overcast
1:35 AM 33.8 °F 30.8 °F 26.6 °F 75% 30.16 in 10.0 mi NW 3.5 mph - N/A   Overcast
1:55 AM 33.8 °F 30.8 °F 26.6 °F 75% 30.15 in 10.0 mi WNW 3.5 mph - N/A   Overcast
2:15 AM 33.8 °F - 26.6 °F 75% 30.15 in 10.0 mi Calm Calm - N/A   Overcast
2:35 AM 33.8 °F - 26.6 °F 75% 30.16 in 10.0 mi Calm Calm - N/A   Overcast
2:55 AM 33.8 °F 30.8 °F 26.6 °F 75% 30.17 in 10.0 mi NNW 3.5 mph - N/A   Overcast
3:15 AM 33.8 °F 30.8 °F 26.6 °F 75% 30.17 in 10.0 mi NNW 3.5 mph - N/A   Overcast
3:35 AM 33.8 °F 30.8 °F 26.6 °F 75% 30.18 in 10.0 mi NW 3.5 mph - N/A   Overcast
3:55 AM 33.8 °F 29.6 °F 26.6 °F 75% 30.17 in 10.0 mi NW 4.6 mph - N/A   Overcast
4:15 AM 33.8 °F 29.6 °F 26.6 °F 75% 30.17 in 10.0 mi NW 4.6 mph - N/A   Overcast
4:35 AM 33.8 °F 28.6 °F 24.8 °F 70% 30.16 in 10.0 mi NNW 5.8 mph - N/A   Overcast
5:15 AM 32.0 °F 28.7 °F 23.0 °F 69% 30.16 in 10.0 mi NNW 3.5 mph - N/A   Overcast
5:35 AM 32.0 °F 27.5 °F 23.0 °F 69% 30.17 in 10.0 mi NW 4.6 mph - N/A   Mostly Cloudy
5:55 AM 32.0 °F 26.4 °F 23.0 °F 69% 30.18 in 10.0 mi NW 5.8 mph - N/A   Scattered Clouds
6:15 AM 32.0 °F 26.4 °F 23.0 °F 69% 30.20 in 10.0 mi NNW 5.8 mph - N/A   Clear
6:35 AM 32.0 °F 26.4 °F 23.0 °F 69% 30.22 in 10.0 mi NW 5.8 mph - N/A   Mostly Cloudy
6:55 AM 32.0 °F 28.7 °F 23.0 °F 69% 30.23 in 10.0 mi NNW 3.5 mph - N/A   Overcast
7:15 AM 32.0 °F 28.7 °F 23.0 °F 69% 30.23 in 10.0 mi NNW 3.5 mph - N/A   Overcast
7:35 AM 32.0 °F 28.7 °F 23.0 °F 69% 30.23 in 10.0 mi WNW 3.5 mph - N/A   Overcast
7:55 AM 32.0 °F 28.7 °F 23.0 °F 69% 30.24 in 10.0 mi WNW 3.5 mph - N/A   Overcast
8:15 AM 32.0 °F 28.7 °F 23.0 °F 69% 30.24 in 10.0 mi NW 3.5 mph - N/A   Mostly Cloudy
8:35 AM 32.0 °F 28.7 °F 23.0 °F 69% 30.24 in 10.0 mi WNW 3.5 mph - N/A   Mostly Cloudy
8:55 AM 32.0 °F 25.6 °F 23.0 °F 69% 30.24 in 10.0 mi NW 6.9 mph - N/A   Overcast
9:15 AM 32.0 °F 28.7 °F 23.0 °F 69% 30.25 in 10.0 mi NNW 3.5 mph - N/A   Overcast
9:35 AM 33.8 °F 28.6 °F 23.0 °F 65% 30.26 in 10.0 mi NW 5.8 mph - N/A   Overcast
9:55 AM 33.8 °F 28.6 °F 23.0 °F 65% 30.26 in 10.0 mi North 5.8 mph - N/A   Overcast
10:15 AM 33.8 °F 29.6 °F 23.0 °F 65% 30.27 in 10.0 mi North 4.6 mph - N/A   Overcast
10:35 AM 35.6 °F 31.7 °F 23.0 °F 60% 30.27 in 10.0 mi North 4.6 mph - N/A   Overcast
10:55 AM 35.6 °F 31.7 °F 23.0 °F 60% 30.27 in 10.0 mi North 4.6 mph - N/A   Overcast
11:15 AM 37.4 °F 32.1 °F 24.8 °F 60% 30.27 in 10.0 mi NW 6.9 mph - N/A   Overcast
11:35 AM 37.4 °F 32.8 °F 26.6 °F 65% 30.27 in 10.0 mi NNW 5.8 mph - N/A   Overcast
11:55 AM 37.4 °F - 26.6 °F 65% 30.26 in 10.0 mi Calm Calm - N/A   Overcast
12:15 PM 39.2 °F - 26.6 °F 61% 30.27 in 10.0 mi Calm Calm - N/A   Overcast
12:35 PM 41.0 °F 37.1 °F 28.4 °F 61% 30.26 in 10.0 mi North 5.8 mph - N/A   Scattered Clouds
12:55 PM 42.8 °F - 28.4 °F 57% 30.25 in 10.0 mi Calm Calm - N/A   Clear
1:15 PM 44.6 °F 41.4 °F 28.4 °F 53% 30.25 in 10.0 mi WNW 5.8 mph - N/A   Clear
1:35 PM 44.6 °F 40.7 °F 28.4 °F 53% 30.24 in 10.0 mi WNW 6.9 mph - N/A   Clear
1:55 PM 44.6 °F - 30.2 °F 57% 30.24 in 10.0 mi Calm Calm - N/A   Clear
2:15 PM 46.4 °F 43.5 °F 30.2 °F 53% 30.23 in 10.0 mi NNW 5.8 mph - N/A   Clear
2:35 PM 48.2 °F - 28.4 °F 46% 30.23 in 10.0 mi NE 4.6 mph - N/A   Clear
2:55 PM 48.2 °F - 28.4 °F 46% 30.22 in 10.0 mi NE 5.8 mph - N/A   Clear
3:15 PM 48.2 °F - 28.4 °F 46% 30.22 in 10.0 mi NE 5.8 mph - N/A   Clear
3:35 PM 48.2 °F - 28.4 °F 46% 30.22 in 10.0 mi NNE 4.6 mph - N/A   Clear
3:55 PM 48.2 °F - 28.4 °F 46% 30.23 in 10.0 mi NE 8.1 mph - N/A   Clear
4:15 PM 46.4 °F 43.5 °F 26.6 °F 46% 30.23 in 10.0 mi North 5.8 mph - N/A   Clear
4:35 PM 46.4 °F 42.9 °F 26.6 °F 46% 30.23 in 10.0 mi NNE 6.9 mph - N/A   Clear
4:55 PM 46.4 °F - 26.6 °F 46% 30.24 in 10.0 mi Calm Calm - N/A   Clear
5:15 PM 46.4 °F 45.2 °F 28.4 °F 50% 30.23 in 10.0 mi NE 3.5 mph - N/A   Clear
5:35 PM 44.6 °F 43.1 °F 28.4 °F 53% 30.23 in 10.0 mi East 3.5 mph - N/A   Clear
5:55 PM 42.8 °F 41.1 °F 28.4 °F 57% 30.24 in 10.0 mi East 3.5 mph - N/A   Clear
6:15 PM 41.0 °F 39.0 °F 28.4 °F 61% 30.24 in 10.0 mi East 3.5 mph - N/A   Clear
6:35 PM 41.0 °F 39.0 °F 28.4 °F 61% 30.25 in 10.0 mi NE 3.5 mph - N/A   Clear
6:55 PM 41.0 °F - 28.4 °F 61% 30.24 in 10.0 mi Calm Calm - N/A   Clear
7:15 PM 41.0 °F - 28.4 °F 61% 30.24 in 10.0 mi Calm Calm - N/A   Clear
7:35 PM 41.0 °F - 28.4 °F 61% 30.24 in 10.0 mi Calm Calm - N/A   Clear
7:55 PM 41.0 °F 39.0 °F 28.4 °F 61% 30.25 in 10.0 mi North 3.5 mph - N/A   Clear
8:15 PM 39.2 °F 37.0 °F 28.4 °F 65% 30.25 in 10.0 mi NE 3.5 mph - N/A   Clear
8:35 PM 37.4 °F - 28.4 °F 70% 30.25 in 10.0 mi Calm Calm - N/A   Clear
8:55 PM 37.4 °F - 28.4 °F 70% 30.25 in 10.0 mi Calm Calm - N/A   Clear
9:15 PM 35.6 °F - 28.4 °F 75% 30.25 in 10.0 mi Calm Calm - N/A   Clear
9:35 PM 35.6 °F - 30.2 °F 81% 30.25 in 10.0 mi Calm Calm - N/A   Clear
9:55 PM 37.4 °F - 28.4 °F 70% 30.27 in 10.0 mi Calm Calm - N/A   Clear
10:15 PM 35.6 °F 32.8 °F 28.4 °F 75% 30.26 in 10.0 mi ENE 3.5 mph - N/A   Clear
10:35 PM 35.6 °F - 28.4 °F 75% 30.27 in 10.0 mi Calm Calm - N/A   Clear
10:55 PM 35.6 °F - 28.4 °F 75% 30.28 in 10.0 mi Calm Calm - N/A   Clear
11:15 PM 33.8 °F - 28.4 °F 81% 30.28 in 10.0 mi Calm Calm - N/A   Clear
11:35 PM 35.6 °F 32.8 °F 28.4 °F 75% 30.28 in 10.0 mi NNE 3.5 mph - N/A   Clear